Kleine Brogel, Belgium

11:45 AM CET on January 19, 2018 (GMT +0100)
Kleine-Brogel Air Base

Weather History for EBBL - February, 2012

Change the Weather History Date:

Monday, February 27, 2012

  Actual Average Record
Temperature  
Mean Temperature 42 °F -  
Max Temperature 52 °F 48 °F 55 °F (2003)
Min Temperature 32 °F 37 °F 26 °F (2004)
Degree Days  
Heating Degree Days 23    
Moisture  
Dew Point 38 °F    
Average Humidity 88    
Maximum Humidity 100    
Minimum Humidity 66    
Precipitation  
Precipitation 0.01 in - - ()
Sea Level Pressure  
Sea Level Pressure 30.29 in    
Wind  
Wind Speed 5 mph ()    
Max Wind Speed 15 mph    
Max Gust Speed -    
Visibility 3.1 miles    
Events Fog , Rain    
Averages and records for this station are not official NWS values.
T = Trace of Precipitation, MM = Missing Value Source: Averaged Metar Reports

Daily Weather History Graph

Daily Weather History Graph

Search for Another Location

Airport or City:

Trip Planner

Search our weather history database for the weather conditions in past years. The results will help you decide how hot, cold, wet, or windy it might be!

Date:

Astronomy

Feb. 27, 2012 Rise Set
Actual Time 7:28 AM CET 6:14 PM CET
Civil Twilight 6:55 AM CET 6:47 PM CET
Nautical Twilight 6:16 AM CET 7:26 PM CET
Astronomical Twilight 5:38 AM CET 8:04 PM CET
Moon 9:05 AM CET (2/27) No Moon Set
Length of Visible Light 11h 52m
Length of Day
10h 45m
Waxing Crescent, 26% of the Moon is Illuminated
Feb 27
Waxing Crescent
Mar 1
First Quarter
Mar 8
Full
Mar 15
Last Quarter
Mar 22
New

Hourly Weather History & Observations

Time (CET) Temp. Windchill Dew Point Humidity Pressure Visibility Wind Dir Wind Speed Gust Speed Precip Events Conditions
12:25 AM 33.8 °F - 32.0 °F 93% 30.39 in 5.0 mi Variable 1.2 mph - N/A   Clear
12:55 AM 32.0 °F - 32.0 °F 100% 30.39 in 5.0 mi Variable 1.2 mph - N/A   Partly Cloudy
1:00 AM 33 °F - 32 °F 92% 30.40 in 5 mi Calm Calm - -   Scattered Clouds
1:25 AM 32.0 °F - 32.0 °F 100% 30.39 in 5.0 mi Variable 2.3 mph - N/A   Partly Cloudy
1:55 AM 35.6 °F 32.8 °F 33.8 °F 93% 30.36 in 5.0 mi Variable 3.5 mph - N/A   Mostly Cloudy
2:06 AM 35.6 °F 32.8 °F 35.6 °F 100% 30.39 in 5.0 mi Variable 3.5 mph - N/A   Mostly Cloudy
2:25 AM 35.6 °F 32.8 °F 35.6 °F 100% 30.36 in 5.0 mi Variable 3.5 mph - N/A   Mostly Cloudy
2:55 AM 35.6 °F 32.8 °F 35.6 °F 100% 30.36 in 2.5 mi Variable 3.5 mph - N/A   Mostly Cloudy
2:59 AM 35.6 °F 32.8 °F 35.6 °F 100% 30.36 in 2.5 mi Variable 3.5 mph - N/A   Mostly Cloudy
3:25 AM 37.4 °F - 35.6 °F 93% 30.36 in 1.9 mi Variable 2.3 mph - N/A   Mostly Cloudy
3:27 AM 37.4 °F - 35.6 °F 93% 30.36 in 1.9 mi Variable 2.3 mph - N/A   Mostly Cloudy
3:55 AM 35.6 °F 32.8 °F 33.8 °F 93% 30.36 in 1.6 mi Variable 3.5 mph - N/A   Scattered Clouds
4:00 AM 35 °F - 34 °F 93% 30.38 in 2 mi 4.5 mph - -   Mist
4:25 AM 33.8 °F 30.8 °F 33.8 °F 100% 30.33 in 1.2 mi Variable 3.5 mph - N/A   Partly Cloudy
4:55 AM 33.8 °F 30.8 °F 33.8 °F 100% 30.33 in 1.2 mi Variable 3.5 mph - N/A   Scattered Clouds
5:25 AM 32.0 °F - 32.0 °F 100% 30.33 in 1.2 mi Variable 2.3 mph - N/A   Partly Cloudy
5:58 AM 33.8 °F 30.8 °F 33.8 °F 100% 30.33 in 0.3 mi Variable 3.5 mph - N/A Fog Fog
6:25 AM 33.8 °F 29.6 °F 33.8 °F 100% 30.33 in 0.1 mi SSW 4.6 mph - N/A Fog Fog
7:00 AM 35 °F - 35 °F 98% 30.35 in 0 mi SW 4.5 mph - - Fog Partial Fog
7:00 AM 35.6 °F 31.7 °F 33.8 °F 93% 30.33 in 0.3 mi SW 4.6 mph - N/A Fog Fog
7:06 AM 35.6 °F 30.7 °F 33.8 °F 93% 30.33 in 0.6 mi SW 5.8 mph - N/A Fog Fog
7:25 AM 33.8 °F 30.8 °F 33.8 °F 100% 30.33 in 0.9 mi Variable 3.5 mph - N/A   Scattered Clouds
7:31 AM 33.8 °F 30.8 °F 33.8 °F 100% 30.33 in 1.0 mi Variable 3.5 mph - N/A   Scattered Clouds
7:55 AM 35.6 °F 31.7 °F 33.8 °F 93% 30.33 in 1.1 mi SW 4.6 mph - N/A   Mostly Cloudy
8:25 AM 37.4 °F 32.8 °F 35.6 °F 93% 30.33 in 1.3 mi SSW 5.8 mph - N/A   Mostly Cloudy
8:55 AM 37.4 °F 32.8 °F 37.4 °F 100% 30.33 in 1.2 mi SSW 5.8 mph - N/A   Mostly Cloudy
9:25 AM 39.2 °F 34.2 °F 37.4 °F 93% 30.33 in 1.3 mi SW 6.9 mph - N/A   Scattered Clouds
9:55 AM 41.0 °F 35.2 °F 39.2 °F 93% 30.33 in - SW 9.2 mph - N/A   Mostly Cloudy
10:00 AM 42 °F - 39 °F 83% 30.34 in 2 mi SW 8.9 mph - -   Mist
10:13 AM 42.8 °F 37.0 °F 39.2 °F 87% 30.33 in 2.5 mi SW 10.4 mph - N/A   Scattered Clouds
10:25 AM 42.8 °F 37.0 °F 39.2 °F 87% 30.33 in - SW 10.4 mph - N/A   Partly Cloudy
10:36 AM 44.6 °F 39.2 °F 39.2 °F 81% 30.30 in 3.1 mi SW 10.4 mph - N/A   Scattered Clouds
10:55 AM 46.4 °F 41.9 °F 39.2 °F 76% 30.30 in 4.3 mi SW 9.2 mph - N/A   Mostly Cloudy
11:25 AM 44.6 °F 40.2 °F 39.2 °F 81% 30.30 in 4.3 mi SSW 8.1 mph - N/A   Mostly Cloudy
11:45 AM 46.4 °F 41.9 °F 39.2 °F 76% 30.30 in 5.0 mi SW 9.2 mph - N/A   Mostly Cloudy
11:55 AM 46.4 °F 42.4 °F 39.2 °F 76% 30.30 in 5.0 mi SSW 8.1 mph - N/A   Mostly Cloudy
12:25 PM 48.2 °F - 39.2 °F 71% 30.27 in 5.6 mi SSW 11.5 mph - N/A   Mostly Cloudy
12:55 PM 50.0 °F - 39.2 °F 66% 30.27 in 6.2 mi SW 13.8 mph - N/A   Mostly Cloudy
1:25 PM 50.0 °F - 39.2 °F 66% 30.27 in 6.2 mi SW 15.0 mph - N/A   Mostly Cloudy
1:55 PM 50.0 °F - 39.2 °F 66% 30.24 in 6.2 mi WSW 13.8 mph - N/A   Mostly Cloudy
2:25 PM 50.0 °F - 39.2 °F 66% 30.24 in 6.2 mi SW 11.5 mph - N/A   Mostly Cloudy
2:55 PM 50.0 °F - 39.2 °F 66% 30.24 in 6.2 mi WSW 11.5 mph - N/A   Mostly Cloudy
3:25 PM 50.0 °F - 39.2 °F 66% 30.24 in 6.2 mi WSW 10.4 mph - N/A   Mostly Cloudy
3:55 PM 48.2 °F - 41.0 °F 76% 30.24 in 5.6 mi WSW 10.4 mph - N/A   Mostly Cloudy
4:00 PM 48 °F - 40 °F 66% 30.25 in 6 mi WSW 11.2 mph - -   Mostly Cloudy
4:21 PM 48.2 °F - 39.2 °F 71% 30.24 in 6.2 mi WSW 10.4 mph - N/A   Mostly Cloudy
4:25 PM 48.2 °F - 39.2 °F 71% 30.24 in 6.2 mi WSW 10.4 mph - N/A   Mostly Cloudy
4:55 PM 48.2 °F - 39.2 °F 71% 30.24 in 6.2 mi WSW 6.9 mph - N/A   Mostly Cloudy
5:25 PM 46.4 °F 42.4 °F 41.0 °F 81% 30.24 in 5.6 mi West 8.1 mph - N/A   Mostly Cloudy
5:55 PM 46.4 °F 41.1 °F 41.0 °F 81% 30.24 in 4.3 mi WSW 11.5 mph - N/A   Mostly Cloudy
5:57 PM 46.4 °F 41.1 °F 41.0 °F 81% 30.24 in 3.7 mi WSW 11.5 mph - N/A   Mostly Cloudy
6:01 PM 46.4 °F 41.1 °F 41.0 °F 81% 30.24 in 4.3 mi WSW 11.5 mph - N/A   Mostly Cloudy
6:25 PM 46.4 °F 42.9 °F 41.0 °F 81% 30.24 in 3.1 mi WSW 6.9 mph - N/A Rain Light Rain
6:55 PM 46.4 °F 41.5 °F 41.0 °F 81% 30.24 in 3.1 mi WSW 10.4 mph - N/A   Mostly Cloudy
7:00 PM 46 °F - 42 °F 80% 30.26 in 3 mi WSW 8.9 mph - - Rain Light Rain
7:25 PM 46.4 °F 41.9 °F 41.0 °F 81% 30.24 in 3.1 mi SW 9.2 mph - N/A   Mostly Cloudy
7:55 PM 46.4 °F 42.4 °F 42.8 °F 87% 30.24 in 3.1 mi SW 8.1 mph - N/A Rain Light Rain
8:25 PM 44.6 °F 40.2 °F 42.8 °F 93% 30.24 in - SW 8.1 mph - N/A Rain Light Rain
8:44 PM 44.6 °F 40.2 °F 42.8 °F 93% 30.24 in - SW 8.1 mph - N/A Rain Light Rain
8:55 PM 44.6 °F 40.2 °F 42.8 °F 93% 30.24 in 1.3 mi SW 8.1 mph - N/A Rain Light Rain
9:03 PM 44.6 °F 40.2 °F 42.8 °F 93% 30.24 in 1.1 mi SW 8.1 mph - N/A Rain Light Rain
9:06 PM 44.6 °F 40.2 °F 42.8 °F 93% 30.24 in 0.9 mi SW 8.1 mph - N/A Rain Light Rain
9:25 PM 44.6 °F 40.7 °F 42.8 °F 93% 30.24 in 0.9 mi SW 6.9 mph - N/A Rain Light Rain
9:28 PM 44.6 °F 40.2 °F 44.6 °F 100% 30.24 in 1.0 mi SW 8.1 mph - N/A Rain Light Rain
9:37 PM 44.6 °F 40.2 °F 42.8 °F 93% 30.24 in 0.9 mi SW 8.1 mph - N/A Rain Light Rain
9:50 PM 44.6 °F 39.7 °F 44.6 °F 100% 30.24 in 1.0 mi SW 9.2 mph - N/A Rain Light Rain
9:55 PM 44.6 °F 39.7 °F 42.8 °F 93% 30.24 in 1.1 mi SW 9.2 mph - N/A Rain Light Rain
10:00 PM 45 °F - 44 °F 92% 30.25 in 1 mi SW 8.9 mph - - Rain Light Rain
10:25 PM 44.6 °F 39.7 °F 42.8 °F 93% 30.24 in 1.4 mi WSW 9.2 mph - N/A Rain Light Rain
11:25 PM 44.6 °F 40.2 °F 44.6 °F 100% 30.24 in 1.4 mi WSW 8.1 mph - N/A Rain Light Rain
11:55 PM 44.6 °F 41.4 °F 44.6 °F 100% 30.24 in 1.4 mi SW 5.8 mph - N/A Rain Light Rain